| time (UTC) | temp C | wind direction | speed KPH | gust KPH | rain 1hr cm | rain 24hr cm | rain mn cm | humidity % | barometer mb |
| 20260507064606 | 10 | 296 | 0.0 | 4.8 | 0.00 | 0.53 | 0.03 | 92 | 1005.8 |
| 20260507063053 | 10 | 293 | 3.2 | 6.4 | 0.00 | 0.53 | 0.03 | 92 | 1006.2 |
| 20260507061548 | 10 | 298 | 1.6 | 6.4 | 0.00 | 0.53 | 0.03 | 92 | 1006.1 |
| 20260507060049 | 10 | 294 | 3.2 | 9.7 | 0.03 | 0.53 | 0.03 | 91 | 1006.2 |
| 20260507054546 | 10 | 319 | 4.8 | 12.9 | 0.03 | 0.53 | 0.03 | 91 | 1006.5 |
| 20260507053044 | 10 | 309 | 4.8 | 11.3 | 0.03 | 0.53 | 0.03 | 93 | 1006.7 |
| 20260507051541 | 10 | 300 | 1.6 | 16.1 | 0.03 | 0.53 | 0.03 | 94 | 1006.6 |
| 20260507050040 | 11 | 336 | 3.2 | 12.9 | 0.00 | 0.51 | 0.00 | 94 | 1006.7 |
| 20260507044534 | 11 | 313 | 1.6 | 11.3 | 0.08 | 0.51 | 0.00 | 95 | 1006.3 |
| 20260507043029 | 12 | 287 | 3.2 | 14.5 | 0.08 | 0.51 | 0.00 | 96 | 1006.2 |
| 20260507041540 | 12 | 291 | 0.0 | 3.2 | 0.08 | 0.51 | 0.00 | 96 | 1006.2 |
| 20260507040025 | 12 | 291 | 3.2 | 11.3 | 0.08 | 0.51 | 0.00 | 95 | 1006.4 |
| 20260507034519 | 13 | 293 | 1.6 | 12.9 | 0.00 | 0.43 | 0.43 | 96 | 1006.2 |
| 20260507033017 | 13 | 317 | 0.0 | 11.3 | 0.03 | 0.43 | 0.43 | 96 | 1005.9 |
| 20260507031514 | 14 | 317 | 8.0 | 17.7 | 0.03 | 0.43 | 0.43 | 97 | 1005.5 |
| 20260507030013 | 14 | 288 | 0.0 | 3.2 | 0.03 | 0.43 | 0.43 | 98 | 1005.2 |
| 20260507024512 | 14 | 281 | 0.0 | 3.2 | 0.00 | 0.41 | 0.41 | 98 | 1005.4 |
| 20260507023011 | 14 | 281 | 0.0 | 3.2 | 0.00 | 0.41 | 0.41 | 98 | 1005.4 |
| 20260507021512 | 14 | 272 | 0.0 | 1.6 | 0.00 | 0.41 | 0.41 | 98 | 1005.1 |
| 20260507020010 | 14 | 214 | 0.0 | 0.0 | 0.00 | 0.41 | 0.41 | 98 | 1005.0 |
| 20260507014517 | 14 | 347 | 0.0 | 3.2 | 0.00 | 0.41 | 0.41 | 98 | 1005.1 |
| 20260507013029 | 14 | 256 | 0.0 | 1.6 | 0.00 | 0.41 | 0.41 | 98 | 1005.2 |
| 20260507011513 | 14 | 281 | 0.0 | 3.2 | 0.00 | 0.41 | 0.41 | 97 | 1005.2 |
| 20260507010007 | 14 | 280 | 0.0 | 1.6 | 0.00 | 0.41 | 0.41 | 97 | 1005.2 |
| 20260507004507 | 14 | 288 | 0.0 | 4.8 | 0.00 | 0.41 | 0.41 | 97 | 1005.1 |
| 20260507003006 | 14 | 305 | 0.0 | 3.2 | 0.00 | 0.41 | 0.41 | 97 | 1005.0 |
| 20260507001505 | 14 | 23 | 0.0 | 1.6 | 0.00 | 0.41 | 0.41 | 97 | 1004.9 |
| 20260507000019 | 14 | 335 | 0.0 | 4.8 | 0.05 | 0.41 | 0.41 | 97 | 1004.9 |
| 20260506234504 | 14 | 284 | 0.0 | 1.6 | 0.08 | 0.41 | 0.41 | 97 | 1004.9 |
| 20260506233004 | 14 | 294 | 0.0 | 1.6 | 0.10 | 0.41 | 0.41 | 97 | 1004.8 |
| 20260506231502 | 14 | 95 | 0.0 | 4.8 | 0.13 | 0.41 | 0.41 | 97 | 1004.9 |
| 20260506230001 | 14 | 319 | 0.0 | 1.6 | 0.15 | 0.36 | 0.36 | 97 | 1004.9 |
| 20260506224604 | 14 | 291 | 0.0 | 3.2 | 0.15 | 0.33 | 0.33 | 97 | 1005.0 |
| 20260506223126 | 14 | 350 | 0.0 | 0.0 | 0.15 | 0.30 | 0.30 | 96 | 1005.0 |
| 20260506221603 | 14 | 288 | 0.0 | 0.0 | 0.13 | 0.28 | 0.28 | 96 | 1005.1 |
| 20260506220057 | 15 | 338 | 0.0 | 3.2 | 0.05 | 0.20 | 0.20 | 96 | 1005.1 |
| 20260506214608 | 15 | 305 | 0.0 | 6.4 | 0.03 | 0.18 | 0.18 | 95 | 1005.3 |
| 20260506213054 | 15 | 188 | 0.0 | 3.2 | 0.03 | 0.15 | 0.15 | 95 | 1005.2 |
| 20260506211553 | 15 | 267 | 0.0 | 1.6 | 0.05 | 0.15 | 0.15 | 95 | 1005.5 |
| 20260506210051 | 15 | 336 | 0.0 | 6.4 | 0.08 | 0.15 | 0.15 | 95 | 1005.7 |
| 20260506204550 | 15 | 271 | 0.0 | 9.7 | 0.08 | 0.15 | 0.15 | 94 | 1005.8 |
| 20260506203050 | 15 | 160 | 0.0 | 4.8 | 0.05 | 0.13 | 0.13 | 94 | 1005.9 |
| 20260506201548 | 16 | 346 | 0.0 | 4.8 | 0.05 | 0.10 | 0.10 | 93 | 1005.8 |
| 20260506200120 | 16 | 331 | 0.0 | 1.6 | 0.05 | 0.08 | 0.08 | 93 | 1005.8 |
| 20260506194547 | 16 | 270 | 0.0 | 1.6 | 0.08 | 0.08 | 0.08 | 92 | 1005.8 |
| 20260506193046 | 16 | 322 | 0.0 | 1.6 | 0.08 | 0.08 | 0.08 | 91 | 1005.9 |
| 20260506191547 | 17 | 320 | 0.0 | 3.2 | 0.05 | 0.05 | 0.05 | 88 | 1005.8 |
| 20260506190045 | 17 | 306 | 0.0 | 4.8 | 0.03 | 0.03 | 0.03 | 84 | 1005.9 |
| 20260506184543 | 18 | 245 | 0.0 | 11.3 | 0.00 | 0.00 | 0.00 | 80 | 1006.0 |
| 20260506183042 | 19 | 10 | 0.0 | 6.4 | 0.00 | 0.00 | 0.00 | 74 | 1006.1 |
| 20260506181542 | 20 | 248 | 3.2 | 11.3 | 0.00 | 0.00 | 0.00 | 69 | 1006.2 |
| 20260506180047 | 20 | 300 | 0.0 | 11.3 | 0.00 | 0.00 | 0.00 | 67 | 1006.2 |
| 20260506174539 | 21 | 329 | 3.2 | 9.7 | 0.00 | 0.00 | 0.00 | 60 | 1006.3 |
| 20260506173038 | 21 | 348 | 1.6 | 9.7 | 0.00 | 0.00 | 0.00 | 59 | 1006.0 |
| 20260506171548 | 22 | 307 | 1.6 | 9.7 | 0.00 | 0.00 | 0.00 | 59 | 1006.2 |
| 20260506170036 | 21 | 265 | 1.6 | 6.4 | 0.00 | 0.00 | 0.00 | 62 | 1006.3 |
| 20260506164528 | 21 | 264 | 0.0 | 4.8 | 0.00 | 0.00 | 0.00 | 63 | 1006.6 |
| 20260506163034 | 21 | 334 | 0.0 | 9.7 | 0.00 | 0.00 | 0.00 | 64 | 1006.9 |
| 20260506161536 | 21 | 336 | 0.0 | 4.8 | 0.00 | 0.00 | 0.00 | 64 | 1007.0 |
| 20260506160024 | 21 | 315 | 1.6 | 6.4 | 0.00 | 0.00 | 0.00 | 65 | 1007.3 |
| 20260506154520 | 20 | 336 | 0.0 | 6.4 | 0.00 | 0.00 | 0.00 | 67 | 1007.6 |
| 20260506153020 | 20 | 313 | 0.0 | 6.4 | 0.00 | 0.00 | 0.00 | 67 | 1007.9 |
| 20260506151519 | 20 | 262 | 0.0 | 11.3 | 0.00 | 0.00 | 0.00 | 68 | 1008.1 |
| 20260506150023 | 21 | 258 | 0.0 | 16.1 | 0.00 | 0.00 | 0.00 | 66 | 1008.0 |
| 20260506144517 | 21 | 320 | 1.6 | 9.7 | 0.00 | 0.00 | 0.00 | 66 | 1008.4 |
| 20260506143016 | 21 | 307 | 0.0 | 6.4 | 0.00 | 0.00 | 0.00 | 67 | 1008.2 |
| 20260506141514 | 20 | 47 | 1.6 | 8.0 | 0.00 | 0.00 | 0.00 | 69 | 1007.9 |
| 20260506140011 | 20 | 212 | 0.0 | 8.0 | 0.00 | 0.00 | 0.00 | 73 | 1008.0 |
| 20260506134519 | 19 | 236 | 0.0 | 8.0 | 0.00 | 0.00 | 0.00 | 73 | 1008.1 |
| 20260506133004 | 18 | 227 | 0.0 | 6.4 | 0.00 | 0.00 | 0.00 | 77 | 1008.4 |
| 20260506131503 | 18 | 74 | 0.0 | 9.7 | 0.00 | 0.00 | 0.00 | 77 | 1008.7 |
| 20260506130059 | 17 | 298 | 0.0 | 4.8 | 0.00 | 0.00 | 0.00 | 78 | 1008.7 |
| 20260506124600 | 17 | 339 | 0.0 | 3.2 | 0.00 | 0.00 | 0.00 | 79 | 1008.8 |
| 20260506123057 | 17 | 264 | 0.0 | 6.4 | 0.00 | 0.00 | 0.00 | 79 | 1008.5 |
| 20260506121606 | 17 | 358 | 0.0 | 6.4 | 0.00 | 0.00 | 0.00 | 79 | 1008.9 |
| 20260506120055 | 17 | 286 | 0.0 | 4.8 | 0.00 | 0.00 | 0.00 | 81 | 1008.7 |
| 20260506114554 | 16 | 358 | 0.0 | 4.8 | 0.00 | 0.00 | 0.00 | 83 | 1008.9 |
| 20260506113052 | 16 | 277 | 0.0 | 3.2 | 0.00 | 0.00 | 0.00 | 83 | 1009.0 |
| 20260506111608 | 15 | 348 | 0.0 | 4.8 | 0.00 | 0.00 | 0.00 | 83 | 1009.2 |
| 20260506110052 | 15 | 279 | 0.0 | 3.2 | 0.00 | 0.00 | 0.00 | 85 | 1009.0 |
| 20260506104549 | 15 | 291 | 0.0 | 3.2 | 0.00 | 0.00 | 0.00 | 86 | 1009.1 |
| 20260506103048 | 14 | 257 | 0.0 | 1.6 | 0.00 | 0.00 | 0.00 | 85 | 1009.0 |
| 20260506101546 | 14 | 257 | 0.0 | 1.6 | 0.00 | 0.00 | 0.00 | 85 | 1009.0 |
| 20260506100046 | 14 | 300 | 0.0 | 1.6 | 0.00 | 0.00 | 0.00 | 85 | 1009.0 |
| 20260506094545 | 14 | 53 | 0.0 | 1.6 | 0.00 | 0.00 | 0.00 | 84 | 1009.0 |
| 20260506093051 | 14 | 234 | 0.0 | 1.6 | 0.00 | 0.00 | 0.00 | 84 | 1008.8 |
| 20260506091542 | 15 | 248 | 0.0 | 3.2 | 0.00 | 0.00 | 0.00 | 83 | 1008.9 |
| 20260506090040 | 15 | 317 | 0.0 | 0.0 | 0.00 | 0.00 | 0.00 | 82 | 1008.9 |
| 20260506084538 | 15 | 252 | 0.0 | 1.6 | 0.00 | 0.00 | 0.00 | 82 | 1008.8 |
| 20260506083037 | 15 | 262 | 0.0 | 3.2 | 0.00 | 0.00 | 0.00 | 81 | 1008.9 |
| 20260506081543 | 15 | 276 | 0.0 | 1.6 | 0.00 | 0.00 | 0.00 | 80 | 1008.9 |
| 20260506073034 | 15 | 261 | 0.0 | 3.2 | 0.00 | 0.00 | 0.00 | 78 | 1008.9 |
| 20260506071533 | 16 | 340 | 0.0 | 6.4 | 0.00 | 0.00 | 0.00 | 77 | 1008.8 |